Flag for Syria Weather past 2 weeks in Damascus, Syria

Now
86 °F

Clear.


Feels Like: 85 °F
Forecast: 63 / 96 °F
Wind: 21 mph from South

Location: Damascus Int. Airport

Current Time: Sep 4, 2015 at 10:08:32 PM

Latest Report: Sep 4, 2015 at 9:00 PM


Visibility: 10 mi

Pressure: 29.86 "Hg (27.63 "Hg at 689m altitude)

Humidity: 40%

Dew point: 59 °F

Location of DamascusLocation

Historic Weather in Damascus — Graph

°F

Damascus temperature yesterday

Maximum temperature yesterday: 102 °F (at 4:00 PM)
Minimum temperature yesterday: 64 °F (at 6:00 AM)
Average temperature yesterday: 83 °F

Past Weeks' High & Low Weather Summary

 TemperatureHumidityPressure
High102 °F (Aug 21, 3:00 PM)94% (Aug 21, 6:00 AM)29.98 "Hg (Aug 21, 6:00 AM)
Low59 °F (Aug 31, 7:00 AM)11% (Aug 21, 3:00 PM)29.71 "Hg (Aug 23, 3:00 PM)
Average81 °F48%29.86 "Hg
* Reported Aug 20 9:00 PM — Sep 4 9:00 PM, Damascus, Weather by CustomWeather, © 2015

Note: Actual official high and low records may vary slightly from our data, if they occured in-between our weather recording intervals... More about our weather records

Advertising

Damascus weather history for previous 24 hours

 ConditionsComfort  
Time TempWeatherWind HumidityBarometerVisibility
9:00 PM
Fri, Sep 4
86 °FClear.21 mph40%29.86 "Hg10 mi
8:00 PM93 °FClear.12 mph24%29.83 "Hg10 mi
7:00 PM97 °FSunny.2 mph22%29.83 "Hg10 mi
6:00 PM102 °FSunny.9 mph18%29.83 "Hg10 mi
5:00 PM100 °FSunny.7 mph18%29.83 "Hg10 mi
4:00 PM100 °FSunny.7 mph21%29.86 "Hg10 mi
2:00 PM99 °FSunny.5 mph22%29.89 "Hg10 mi
1:00 PM95 °FSunny.5 mph25%29.92 "Hg10 mi
12:00 PM91 °FSunny.7 mph36%29.92 "Hg10 mi
11:00 AM86 °FSunny.7 mph25%29.95 "Hg10 mi
10:00 AM82 °FSunny.2 mph51%29.95 "Hg10 mi
9:00 AM75 °FSunny.7 mph78%29.95 "Hg10 mi
8:00 AM72 °FSunny.No wind83%29.92 "Hg10 mi
7:00 AM68 °FClear.No wind83%29.92 "Hg10 mi
6:00 AM72 °FClear.5 mph83%29.92 "Hg10 mi
5:00 AM70 °FClear.5 mph88%29.89 "Hg10 mi
4:00 AM72 °FClear.No wind83%29.89 "Hg10 mi
3:00 AM73 °FClear.5 mph83%29.89 "Hg10 mi
2:00 AM75 °FClear.No wind78%29.89 "Hg10 mi
1:00 AM77 °FClear.7 mph69%29.89 "Hg10 mi
12:00 AM77 °FClear.2 mph65%29.89 "Hg10 mi
11:00 PM
Thu, Sep 3
79 °FClear.No wind58%29.89 "Hg10 mi
10:00 PM81 °FClear.No wind66%29.89 "Hg10 mi
Weather by CustomWeather, © 2015

See weather overviewHow to use our weather pages